Regional Weather Roundup
Issued by NWS

Home | Current Version | Previous Version | Text Only | Print | Product List | Glossary On
Versions: 1 2 3 4 5 6 7 8 9 10 11 12 13 14 15 16 17 18 19 20 21 22 23 24 25 26 27 28 29 30 31 32 33 34 35 36 37 38 39 40 41 42 43 44 45 46 47 48 49 50
000
ASUS45 KPSR 272310
RWRAZ

ARIZONA REGIONAL HOURLY WEATHER ROUNDUP
NATIONAL WEATHER SERVICE PHOENIX AZ
400 PM MST FRI FEB 27 2015

NOTE: FAIR INDICATES FEW OR NO CLOUDS BELOW 12,000 FEET WITH NO
SIGNIFICANT WEATHER AND/OR OBSTRUCTIONS TO VISIBILITY.

AZZ001>003-036-280000-
NORTHWEST ARIZONA

CITY           SKY/WX    TMP DP  RH WIND       PRES   REMARKS
BULLHEAD CITY  CLOUDY    72  25  17 SE5       29.60F
KINGMAN        SUNNY     61  24  24 S18G26    29.65F
$$

AZZ004>008-015-016-018-280000-
NORTH CENTRAL ARIZONA

CITY           SKY/WX    TMP DP  RH WIND       PRES   REMARKS
GRAND CANYON   CLOUDY    39  30  70 NW6       29.72F WCI  35
PRESCOTT       PTSUNNY   53  21  28 SW20G28   29.71S
FLAGSTAFF      CLOUDY    40  24  53 SW12G25   29.72F WCI  33
PAGE           LGT RAIN  42  34  73 E3        29.72F
$$

AZZ009>014-017-280000-
NORTHEAST ARIZONA

CITY           SKY/WX    TMP DP  RH WIND       PRES   REMARKS
WINSLOW        CLOUDY    50  27  40 CALM      29.71F
SAINT JOHNS    CLOUDY    53  19  26 SW26G33   29.69F
WINDOW ROCK    LGT SNOW  34  30  85 NW5       29.75F FOG     WCI  30
SHOW LOW       CLOUDY    46  23  39 S24G31    29.75S
$$

AZZ023-280000-
GREATER PHOENIX AREA

CITY           SKY/WX    TMP DP  RH WIND       PRES   REMARKS
PHOENIX        MOSUNNY   76  28  17 SW6       29.60F
BUCKEYE        SUNNY     75  32  20 SW14G22   29.63F
GLENDALE       MOSUNNY   75  32  20 SW12G17   29.63F
LUKE AFB       SUNNY     75  33  21 SW13G18   29.61F
DEER VALLEY    SUNNY     71  28  20 VRB7      29.63F
SCOTTSDALE     SUNNY     73  26  17 SW13G21   29.65F
MESA-FALCON    MOSUNNY   73  28  19 SW12      29.62F
MESA-GATEWAY   MOSUNNY   75  30  19 W18       29.65F
CHANDLER       MOSUNNY   77  30  18 SW15      29.62F
$$

AZZ027-028-280000-
SOUTHWEST MARICOPA COUNTY AND PINAL COUNTY

CITY           SKY/WX    TMP DP  RH WIND       PRES   REMARKS
CASA GRANDE    SUNNY     75  28  17 SW12G18   29.64S
GILA BEND      MOSUNNY   76  39  27 SW17G24   29.64S
$$

AZZ503-504-507>509-280000-
SOUTHEAST ARIZONA

CITY           SKY/WX    TMP DP  RH WIND       PRES   REMARKS
TUCSON         SUNNY     75  25  15 W18G25    29.70F
DAVIS-MONTHAN  SUNNY     73  26  17 W15G23    29.68F
RYAN FIELD       N/A     75  30  19 SW13G20   29.70F
NOGALES        SUNNY     69  27  20 SW18G35   29.77F
SIERRA VISTA   MOSUNNY   66  21  18 W17G32    29.77F
DOUGLAS        SUNNY     70  21  15 SW23G31   29.76S
SAFFORD        SUNNY     68  24  19 S3        29.67F
$$

AZZ020-021-025-026-031-280000-
SOUTHWEST ARIZONA

CITY           SKY/WX    TMP DP  RH WIND       PRES   REMARKS
YUMA           PTSUNNY   76  39  26 VRB6      29.63F
$$

CAZ031-033-041-043-047-048-061-280000-
SOUTHERN CALIFORNIA

CITY           SKY/WX    TMP DP  RH WIND       PRES   REMARKS
DOWNTOWN L.A.  CLOUDY    64  53  67 VRB5      29.76F
L.A. AIRPORT   PTSUNNY   63  51  65 SW13      29.77F
SAN DIEGO      PTSUNNY   64  53  67 SW14      29.82S
BURBANK        CLOUDY    62  49  62 S10       29.76F
ONTARIO        CLOUDY    60  47  61 W7        29.77F
RIVERSIDE      CLOUDY    62  47  57 VRB3      29.77F
PALM SPRINGS   MOSUNNY   75  41  29 NW18      29.64S
EL CENTRO NAS  MOSUNNY   79  40  24 W29G38    29.62S
IMPERIAL       SUNNY     78  43  28 W25G32    29.61S
BLYTHE         SUNNY     76  36  23 S9        29.60F
NEEDLES        SUNNY     74  24  15 E8        29.59F
$$

NVZ020-UTZ003-280000-
SOUTHERN NEVADA-UTAH

CITY           SKY/WX    TMP DP  RH WIND       PRES   REMARKS
LAS VEGAS      MOSUNNY   65  22  19 SE8       29.58F
SALT LAKE CITY PTSUNNY   41  27  57 E8        29.71F
$$

NMZ009-TXZ055-280000-
NEW MEXICO-WEST TEXAS

CITY           SKY/WX    TMP DP  RH WIND       PRES   REMARKS
ALBUQUERQUE    LGT SNOW  26  23  88 N9        29.89F FOG     WCI  17
EL PASO        MOSUNNY   46  23  40 E9        29.90F
$$


........................KEY........................
SKY/WX - SKY CONDITION/WEATHER
TMP    - TEMPERATURE IN FAHRENHEIT
DP     - DEW POINT IN FAHRENHEIT
RH     - RELATIVE HUMIDITY IN PERCENT
WIND   - DIRECTION AND SPEED IN MILES PER HOUR (MPH)
VRB    - VARIABLE WIND DIRECTION
PRES   - MEAN SEA LEVEL PRESSURE IN INCHES OF MERCURY
         F - FALLING PRESSURE   R - RISING PRESSURE
         S - STEADY PRESSURE
VSB    - VISIBILITY IN MILES
HX     - HEAT INDEX IN FAHRENHEIT
WCI    - WIND CHILL INDEX IN FAHRENHEIT
TC     - TEMPERATURE IN CELSIUS WHICH IS ALSO KNOWN AS
         TEMPERATURE IN CENTIGRADE
AFB    - AIR FORCE BASE
         LUKE AFB IS LUKE AIR FORCE BASE
         DAVIS-MONTHAN IS DAVIS-MONTHAN AIR FORCE BASE
NAS    - NAVAL AIR STATION
         EL CENTRO NAS IS EL CENTRO NAVAL AIR STATION
N/A    - NOT AVAILABLE



USA.gov is the U.S. government's official web portal to all federal, state and local government web resources and services.